When you browse on this site, cookies collect data to enhance your experience and personalize the content and advertising you see.
Visit our Privacy Policy to learn more. By continuing to use the site, you agree to this use of cookies and data.

Hourly Weather Cobourg

Today, 12 August, Wednesday

Time Temperature Precipitation Wind Pressure Humidity
00:00 +18°C° 0 mm 4 mps 753 mmHg 80%
01:00 +17°C° 0 mm 3 mps 754 mmHg 87%
02:00 +17°C° 0 mm 3 mps 754 mmHg 88%
03:00 +17°C° 0 mm 3 mps 754 mmHg 90%
04:00 +17°C° 0 mm 3 mps 754 mmHg 91%
05:00 +18°C° 0 mm 2 mps 755 mmHg 88%
06:00 +19°C° 0 mm 2 mps 755 mmHg 85%
07:00 +20°C° 0 mm 2 mps 756 mmHg 83%
08:00 +23°C° 0 mm 2 mps 756 mmHg 73%
09:00 +25°C° 0 mm 2 mps 756 mmHg 63%
10:00 +27°C° 0 mm 2 mps 756 mmHg 53%
11:00 +28°C° 0 mm 3 mps 756 mmHg 51%
12:00 +28°C° 0 mm 3 mps 756 mmHg 49%
13:00 +29°C° 0 mm 4 mps 756 mmHg 47%
14:00 +29°C° 0 mm 3 mps 755 mmHg 48%
15:00 +29°C° 0 mm 3 mps 755 mmHg 49%
16:00 +29°C° 0 mm 3 mps 755 mmHg 51%
17:00 +27°C° 0 mm 3 mps 755 mmHg 55%
18:00 +25°C° 0 mm 2 mps 756 mmHg 60%
19:00 +24°C° 0 mm 2 mps 756 mmHg 65%
20:00 +23°C° 0 mm 2 mps 756 mmHg 64%
21:00 +23°C° 0 mm 1 mps 756 mmHg 64%
22:00 +22°C° 0 mm 1 mps 757 mmHg 63%
23:00 +21°C° 0 mm 2 mps 757 mmHg 70%

Tomorrow, 13 August, Thursday

Time Temperature Precipitation Wind Pressure Humidity
00:00 +20°C° 0 mm 2 mps 757 mmHg 76%
01:00 +20°C° 0 mm 2 mps 757 mmHg 83%
02:00 +19°C° 0 mm 2 mps 757 mmHg 83%
03:00 +19°C° 0 mm 2 mps 757 mmHg 83%
04:00 +19°C° 0 mm 2 mps 757 mmHg 84%
05:00 +19°C° 0 mm 2 mps 757 mmHg 80%
06:00 +20°C° 0 mm 2 mps 757 mmHg 76%
07:00 +20°C° 0 mm 3 mps 758 mmHg 73%
08:00 +24°C° 0 mm 3 mps 758 mmHg 66%
09:00 +26°C° 0 mm 3 mps 758 mmHg 60%
10:00 +28°C° 0 mm 3 mps 758 mmHg 53%
11:00 +28°C° 0 mm 2 mps 757 mmHg 52%
12:00 +29°C° 0 mm 2 mps 757 mmHg 51%
13:00 +29°C° 0 mm 2 mps 757 mmHg 49%
14:00 +29°C° 0 mm 2 mps 756 mmHg 51%
15:00 +29°C° 0 mm 2 mps 756 mmHg 52%
16:00 +29°C° 0 mm 2 mps 756 mmHg 54%
17:00 +27°C° 0 mm 1 mps 756 mmHg 61%
18:00 +25°C° 0 mm 1 mps 756 mmHg 68%
19:00 +22°C° 0 mm 0 mps 756 mmHg 75%
20:00 +23°C° 0 mm 1 mps 756 mmHg 74%
21:00 +23°C° 0 mm 2 mps 757 mmHg 74%
22:00 +22°C° 0 mm 3 mps 757 mmHg 73%
23:00 +21°C° 0 mm 3 mps 757 mmHg 72%

Day after tomorrow, 14 August, Friday

Time Temperature Precipitation Wind Pressure Humidity
00:00 +21°C° 0 mm 3 mps 757 mmHg 72%
01:00 +20°C° 0 mm 4 mps 757 mmHg 71%
02:00 +20°C° 0 mm 4 mps 757 mmHg 73%
03:00 +19°C° 0 mm 4 mps 757 mmHg 75%
04:00 +18°C° 0 mm 4 mps 756 mmHg 76%
05:00 +19°C° 0 mm 4 mps 756 mmHg 76%
06:00 +20°C° 0 mm 4 mps 756 mmHg 75%
07:00 +20°C° 0 mm 4 mps 756 mmHg 74%
08:00 +22°C° 0 mm 4 mps 757 mmHg 67%
09:00 +25°C° 0 mm 4 mps 757 mmHg 61%
10:00 +27°C° 0 mm 4 mps 757 mmHg 55%
11:00 +28°C° 0 mm 4 mps 756 mmHg 53%
12:00 +29°C° 0 mm 3 mps 756 mmHg 51%
13:00 +29°C° 0 mm 3 mps 756 mmHg 49%
14:00 +29°C° 0 mm 3 mps 756 mmHg 51%
15:00 +29°C° 0 mm 3 mps 755 mmHg 53%
16:00 +28°C° 0 mm 3 mps 755 mmHg 55%
17:00 +27°C° 0 mm 2 mps 755 mmHg 62%
18:00 +25°C° 0 mm 2 mps 755 mmHg 68%
19:00 +24°C° 0 mm 2 mps 755 mmHg 75%
20:00 +22°C° 0 mm 3 mps 754 mmHg 76%
21:00 +21°C° 0 mm 4 mps 754 mmHg 77%
22:00 +21°C° 0 mm 5 mps 754 mmHg 79%
23:00 +20°C° 0 mm 5 mps 754 mmHg 80%

15 August, Saturday

Time Temperature Precipitation Wind Pressure Humidity
00:00 +19°C° 0 mm 5 mps 754 mmHg 82%
01:00 +18°C° 0 mm 4 mps 754 mmHg 83%
02:00 +18°C° 0 mm 4 mps 754 mmHg 83%
03:00 +18°C° 0 mm 4 mps 754 mmHg 84%
04:00 +18°C° 0 mm 4 mps 754 mmHg 84%
05:00 +19°C° 0 mm 4 mps 754 mmHg 84%
06:00 +19°C° 0 mm 4 mps 754 mmHg 84%
07:00 +20°C° 0 mm 4 mps 754 mmHg 84%
08:00 +22°C° 0 mm 4 mps 754 mmHg 82%
09:00 +23°C° 0 mm 5 mps 754 mmHg 79%
10:00 +26°C° 0 mm 5 mps 754 mmHg 77%
11:00 +27°C° 0.2 mm 5 mps 754 mmHg 73%
12:00 +27°C° 0.2 mm 5 mps 754 mmHg 68%
13:00 +28°C° 0.2 mm 5 mps 754 mmHg 64%
14:00 +28°C° 0 mm 5 mps 754 mmHg 64%
15:00 +28°C° 0 mm 5 mps 754 mmHg 64%
16:00 +28°C° 0 mm 4 mps 753 mmHg 64%
17:00 +27°C° 0 mm 4 mps 753 mmHg 66%
18:00 +26°C° 0 mm 4 mps 753 mmHg 69%
19:00 +25°C° 0 mm 3 mps 754 mmHg 72%
20:00 +25°C° 0.1 mm 3 mps 754 mmHg 73%
21:00 +24°C° 0.1 mm 3 mps 754 mmHg 74%
22:00 +24°C° 0.1 mm 3 mps 754 mmHg 76%
23:00 +24°C° 0.2 mm 3 mps 754 mmHg 79%

16 August, Sunday

Time Temperature Precipitation Wind Pressure Humidity
00:00 +22°C° 0.2 mm 3 mps 754 mmHg 82%
01:00 +21°C° 0.2 mm 2 mps 754 mmHg 86%
02:00 +21°C° 0.1 mm 2 mps 754 mmHg 87%
03:00 +21°C° 0.1 mm 2 mps 754 mmHg 89%
04:00 +20°C° 0.1 mm 2 mps 754 mmHg 90%
05:00 +20°C° 0.6 mm 3 mps 754 mmHg 91%
06:00 +20°C° 0.6 mm 3 mps 754 mmHg 92%
07:00 +20°C° 0.6 mm 3 mps 754 mmHg 93%
08:00 +20°C° 1 mm 4 mps 754 mmHg 92%
09:00 +20°C° 1 mm 5 mps 754 mmHg 91%
10:00 +20°C° 1 mm 5 mps 754 mmHg 91%
11:00 +19°C° 0.8 mm 6 mps 753 mmHg 91%
12:00 +18°C° 0.8 mm 7 mps 753 mmHg 91%
13:00 +17°C° 0.8 mm 8 mps 753 mmHg 91%
14:00 +17°C° 0.5 mm 8 mps 753 mmHg 92%
15:00 +16°C° 0.5 mm 7 mps 753 mmHg 93%
16:00 +16°C° 0.5 mm 7 mps 752 mmHg 93%
17:00 +16°C° 0.5 mm 7 mps 752 mmHg 94%
18:00 +16°C° 0.5 mm 7 mps 752 mmHg 94%
19:00 +16°C° 0.5 mm 6 mps 752 mmHg 94%
20:00 +16°C° 0.1 mm 6 mps 751 mmHg 94%
21:00 +17°C° 0.1 mm 5 mps 751 mmHg 94%
22:00 +18°C° 0.1 mm 4 mps 751 mmHg 94%
23:00 +18°C° 0.1 mm 3 mps 751 mmHg 95%

17 August, Monday

Time Temperature Precipitation Wind Pressure Humidity
00:00 +18°C° 0.1 mm 2 mps 751 mmHg 95%
01:00 +19°C° 0.1 mm 1 mps 750 mmHg 95%
02:00 +18°C° 0 mm 2 mps 750 mmHg 96%
03:00 +17°C° 0 mm 2 mps 750 mmHg 96%
04:00 +17°C° 0 mm 2 mps 750 mmHg 97%
05:00 +17°C° 0 mm 2 mps 750 mmHg 96%
06:00 +17°C° 0 mm 2 mps 750 mmHg 95%
07:00 +17°C° 0 mm 2 mps 750 mmHg 95%
08:00 +18°C° 0 mm 2 mps 750 mmHg 91%
09:00 +19°C° 0 mm 2 mps 751 mmHg 88%
10:00 +20°C° 0 mm 2 mps 751 mmHg 85%
11:00 +21°C° 0 mm 2 mps 750 mmHg 79%
12:00 +24°C° 0 mm 3 mps 750 mmHg 73%
13:00 +25°C° 0 mm 3 mps 750 mmHg 66%
14:00 +25°C° 0 mm 4 mps 750 mmHg 65%
15:00 +26°C° 0 mm 4 mps 750 mmHg 64%
16:00 +26°C° 0 mm 4 mps 749 mmHg 63%
17:00 +25°C° 0 mm 3 mps 749 mmHg 69%
18:00 +22°C° 0 mm 3 mps 749 mmHg 75%
19:00 +21°C° 0 mm 2 mps 749 mmHg 81%
20:00 +20°C° 0 mm 2 mps 749 mmHg 81%
21:00 +20°C° 0 mm 2 mps 749 mmHg 82%
22:00 +20°C° 0 mm 2 mps 749 mmHg 83%
23:00 +19°C° 0.2 mm 2 mps 749 mmHg 85%
Show more